When you browse on this site, cookies collect data to enhance your experience and personalize the content and advertising you see.
Visit our Privacy Policy to learn more. By continuing to use the site, you agree to this use of cookies and data.
  • In Österreich
  • Länderverzeichnis
  • Für 7 Tage
  • Wassertemperatur
  • Satellitenkarten
  • Wetterkarte
  • News
  • Widgets
  • user-avatar
    Anmelden

    Stündliche Wetter Linz

    Heute, 17 Juli, Mittwoch

    Zeit Temperatur Niederschläge Wind Luftdruck Luftfeuchtigkeit
    00:00 +15°C° 0 mm 1 m/S 733 mmHg 86%
    01:00 +15°C° 0 mm 1 m/S 733 mmHg 88%
    02:00 +14°C° 0 mm 1 m/S 733 mmHg 89%
    03:00 +14°C° 0 mm 1 m/S 733 mmHg 90%
    04:00 +13°C° 0 mm 0 m/S 733 mmHg 91%
    05:00 +14°C° 0 mm 0 m/S 733 mmHg 87%
    06:00 +15°C° 0 mm 0 m/S 733 mmHg 84%
    07:00 +17°C° 0 mm 0 m/S 733 mmHg 79%
    08:00 +20°C° 0 mm 1 m/S 732 mmHg 75%
    09:00 +22°C° 0 mm 1 m/S 732 mmHg 70%
    10:00 +24°C° 0 mm 2 m/S 732 mmHg 65%
    11:00 +25°C° 0 mm 2 m/S 732 mmHg 61%
    12:00 +26°C° 0 mm 2 m/S 732 mmHg 56%
    13:00 +27°C° 0 mm 2 m/S 731 mmHg 52%
    14:00 +27°C° 0.1 mm 2 m/S 731 mmHg 53%
    15:00 +27°C° 0.1 mm 2 m/S 731 mmHg 55%
    16:00 +27°C° 0.1 mm 2 m/S 731 mmHg 56%
    17:00 +25°C° 0.3 mm 2 m/S 731 mmHg 63%
    18:00 +24°C° 0.3 mm 2 m/S 731 mmHg 71%
    19:00 +22°C° 0.3 mm 1 m/S 731 mmHg 78%
    20:00 +21°C° 0.2 mm 1 m/S 731 mmHg 82%
    21:00 +19°C° 0.2 mm 1 m/S 732 mmHg 85%
    22:00 +18°C° 0.2 mm 1 m/S 732 mmHg 89%
    23:00 +16°C° 0.2 mm 1 m/S 732 mmHg 90%

    Morgen, 18 Juli, Donnerstag

    Zeit Temperatur Niederschläge Wind Luftdruck Luftfeuchtigkeit
    00:00 +16°C° 0.2 mm 1 m/S 732 mmHg 91%
    01:00 +14°C° 0.2 mm 0 m/S 732 mmHg 92%
    02:00 +14°C° 0.1 mm 0 m/S 731 mmHg 93%
    03:00 +13°C° 0.1 mm 0 m/S 731 mmHg 93%
    04:00 +13°C° 0.1 mm 0 m/S 731 mmHg 94%
    05:00 +14°C° 0 mm 0 m/S 731 mmHg 92%
    06:00 +15°C° 0 mm 0 m/S 731 mmHg 90%
    07:00 +17°C° 0 mm 0 m/S 731 mmHg 89%
    08:00 +18°C° 0.2 mm 0 m/S 732 mmHg 83%
    09:00 +22°C° 0.2 mm 1 m/S 732 mmHg 77%
    10:00 +23°C° 0.2 mm 1 m/S 732 mmHg 71%
    11:00 +24°C° 0.1 mm 2 m/S 731 mmHg 63%
    12:00 +25°C° 0.1 mm 2 m/S 731 mmHg 56%
    13:00 +27°C° 0.1 mm 2 m/S 731 mmHg 49%
    14:00 +27°C° 0 mm 2 m/S 731 mmHg 49%
    15:00 +27°C° 0 mm 2 m/S 731 mmHg 49%
    16:00 +27°C° 0 mm 2 m/S 731 mmHg 50%
    17:00 +25°C° 0 mm 2 m/S 731 mmHg 56%
    18:00 +24°C° 0 mm 1 m/S 731 mmHg 63%
    19:00 +23°C° 0 mm 1 m/S 731 mmHg 70%
    20:00 +21°C° 0 mm 1 m/S 732 mmHg 73%
    21:00 +20°C° 0 mm 1 m/S 732 mmHg 77%
    22:00 +18°C° 0 mm 1 m/S 733 mmHg 80%
    23:00 +18°C° 0.1 mm 1 m/S 733 mmHg 82%

    übermorgen, 19 Juli, Freitag

    Zeit Temperatur Niederschläge Wind Luftdruck Luftfeuchtigkeit
    00:00 +16°C° 0.1 mm 1 m/S 733 mmHg 83%
    01:00 +16°C° 0.1 mm 1 m/S 733 mmHg 85%
    02:00 +15°C° 0 mm 1 m/S 733 mmHg 86%
    03:00 +15°C° 0 mm 1 m/S 733 mmHg 88%
    04:00 +15°C° 0 mm 1 m/S 733 mmHg 89%
    05:00 +15°C° 0 mm 0 m/S 733 mmHg 87%
    06:00 +16°C° 0 mm 0 m/S 733 mmHg 84%
    07:00 +17°C° 0 mm 0 m/S 734 mmHg 82%
    08:00 +21°C° 0.1 mm 1 m/S 734 mmHg 76%
    09:00 +23°C° 0.1 mm 1 m/S 734 mmHg 71%
    10:00 +24°C° 0.1 mm 1 m/S 734 mmHg 66%
    11:00 +25°C° 0.1 mm 1 m/S 734 mmHg 60%
    12:00 +27°C° 0.1 mm 1 m/S 734 mmHg 55%
    13:00 +28°C° 0.1 mm 1 m/S 733 mmHg 50%
    14:00 +28°C° 0 mm 1 m/S 733 mmHg 50%
    15:00 +28°C° 0 mm 1 m/S 733 mmHg 51%
    16:00 +28°C° 0 mm 1 m/S 733 mmHg 51%
    17:00 +27°C° 0.1 mm 1 m/S 733 mmHg 58%
    18:00 +25°C° 0.1 mm 1 m/S 733 mmHg 65%
    19:00 +22°C° 0.1 mm 0 m/S 733 mmHg 71%
    20:00 +22°C° 0.1 mm 1 m/S 734 mmHg 76%
    21:00 +21°C° 0.1 mm 1 m/S 734 mmHg 80%
    22:00 +20°C° 0.1 mm 1 m/S 734 mmHg 84%
    23:00 +19°C° 0 mm 1 m/S 734 mmHg 85%

    20 Juli, Samstag

    Zeit Temperatur Niederschläge Wind Luftdruck Luftfeuchtigkeit
    00:00 +19°C° 0 mm 1 m/S 734 mmHg 86%
    01:00 +18°C° 0 mm 1 m/S 734 mmHg 86%
    02:00 +16°C° 0 mm 0 m/S 734 mmHg 87%
    03:00 +15°C° 0 mm 0 m/S 734 mmHg 88%
    04:00 +15°C° 0 mm 0 m/S 734 mmHg 88%
    05:00 +16°C° 0 mm 0 m/S 734 mmHg 86%
    06:00 +18°C° 0 mm 0 m/S 734 mmHg 83%
    07:00 +19°C° 0 mm 0 m/S 734 mmHg 80%
    08:00 +23°C° 0 mm 1 m/S 734 mmHg 75%
    09:00 +25°C° 0 mm 1 m/S 735 mmHg 69%
    10:00 +26°C° 0 mm 1 m/S 735 mmHg 64%
    11:00 +28°C° 0 mm 1 m/S 735 mmHg 60%
    12:00 +29°C° 0 mm 1 m/S 734 mmHg 56%
    13:00 +30°C° 0 mm 1 m/S 734 mmHg 52%
    14:00 +30°C° 0.1 mm 1 m/S 734 mmHg 51%
    15:00 +30°C° 0.1 mm 1 m/S 734 mmHg 50%
    16:00 +30°C° 0.1 mm 1 m/S 734 mmHg 49%
    17:00 +29°C° 0 mm 1 m/S 734 mmHg 56%
    18:00 +27°C° 0 mm 1 m/S 735 mmHg 62%
    19:00 +25°C° 0 mm 1 m/S 735 mmHg 69%
    20:00 +24°C° 0.1 mm 1 m/S 735 mmHg 74%
    21:00 +21°C° 0.1 mm 2 m/S 736 mmHg 78%
    22:00 +20°C° 0.1 mm 2 m/S 736 mmHg 83%
    23:00 +19°C° 0 mm 2 m/S 736 mmHg 84%

    21 Juli, Sonntag

    Zeit Temperatur Niederschläge Wind Luftdruck Luftfeuchtigkeit
    00:00 +19°C° 0 mm 1 m/S 736 mmHg 85%
    01:00 +18°C° 0 mm 1 m/S 736 mmHg 86%
    02:00 +18°C° 0 mm 1 m/S 736 mmHg 86%
    03:00 +16°C° 0 mm 1 m/S 736 mmHg 85%
    04:00 +15°C° 0 mm 0 m/S 736 mmHg 85%
    05:00 +16°C° 0 mm 0 m/S 736 mmHg 82%
    06:00 +18°C° 0 mm 0 m/S 737 mmHg 79%
    07:00 +19°C° 0 mm 0 m/S 737 mmHg 77%
    08:00 +21°C° 0.1 mm 0 m/S 737 mmHg 72%
    09:00 +24°C° 0.1 mm 1 m/S 737 mmHg 68%
    10:00 +26°C° 0.1 mm 1 m/S 738 mmHg 63%
    11:00 +26°C° 0.1 mm 1 m/S 737 mmHg 64%
    12:00 +26°C° 0.1 mm 1 m/S 737 mmHg 64%
    13:00 +27°C° 0.1 mm 1 m/S 737 mmHg 65%
    14:00 +28°C° 0 mm 2 m/S 737 mmHg 61%
    15:00 +29°C° 0 mm 2 m/S 737 mmHg 57%
    16:00 +30°C° 0 mm 2 m/S 737 mmHg 53%
    17:00 +28°C° 0.2 mm 2 m/S 737 mmHg 62%
    18:00 +27°C° 0.2 mm 2 m/S 737 mmHg 70%
    19:00 +25°C° 0.2 mm 2 m/S 738 mmHg 79%
    20:00 +24°C° 0.2 mm 2 m/S 738 mmHg 82%
    21:00 +21°C° 0.2 mm 2 m/S 738 mmHg 86%
    22:00 +21°C° 0.2 mm 1 m/S 738 mmHg 89%
    23:00 +21°C° 0 mm 1 m/S 738 mmHg 90%

    22 Juli, Montag

    Zeit Temperatur Niederschläge Wind Luftdruck Luftfeuchtigkeit
    00:00 +20°C° 0 mm 1 m/S 738 mmHg 90%
    01:00 +20°C° 0 mm 1 m/S 738 mmHg 91%
    02:00 +19°C° 0 mm 1 m/S 738 mmHg 92%
    03:00 +19°C° 0 mm 1 m/S 738 mmHg 92%
    04:00 +16°C° 0 mm 0 m/S 738 mmHg 93%
    05:00 +17°C° 0 mm 0 m/S 738 mmHg 90%
    06:00 +18°C° 0 mm 0 m/S 738 mmHg 87%
    07:00 +19°C° 0 mm 0 m/S 738 mmHg 85%
    08:00 +21°C° 0 mm 0 m/S 738 mmHg 78%
    09:00 +23°C° 0 mm 0 m/S 738 mmHg 71%
    10:00 +27°C° 0 mm 1 m/S 738 mmHg 64%
    11:00 +28°C° 0 mm 1 m/S 738 mmHg 60%
    12:00 +29°C° 0 mm 1 m/S 737 mmHg 56%
    13:00 +29°C° 0 mm 1 m/S 737 mmHg 52%
    14:00 +30°C° 0 mm 2 m/S 737 mmHg 51%
    15:00 +30°C° 0 mm 2 m/S 737 mmHg 50%
    16:00 +30°C° 0 mm 2 m/S 736 mmHg 49%
    17:00 +28°C° 0 mm 2 m/S 736 mmHg 56%
    18:00 +27°C° 0 mm 2 m/S 737 mmHg 63%
    19:00 +25°C° 0 mm 2 m/S 737 mmHg 69%
    20:00 +24°C° 0 mm 1 m/S 737 mmHg 73%
    21:00 +22°C° 0 mm 1 m/S 737 mmHg 77%
    22:00 +20°C° 0 mm 1 m/S 737 mmHg 81%
    23:00 +20°C° 0 mm 1 m/S 737 mmHg 82%
    Mehr zeigen